Tracking 19476 objects as of 17-Jan-2019
HD Live streaming from Space Station
objects crossing your sky now

ECAMSAT

Track ECAMSAT now!
10-day predictions
ECAMSAT is classified as:


NORAD ID: 43019
Int'l Code: 1998-067NG
Perigee: 394.0 km
Apogee: 399.4 km
Inclination: 51.6 °
Period: 92.3 minutes
Semi major axis: 6767 km
RCS: Unknown
Launch date: November 20, 1998
Source: United States (US)
Launch site: TYURATAM MISSILE AND SPACE COMPLEX (TTMTR)

Uplink (MHz):
Downlink (MHz): 437.095
Beacon (MHz):
Mode: 1200bps AFSK
Call sign: KE6QLL
Status: Active

aabbcc
Your satellite tracking list
Your tracking list is empty




NASA's NSSDC Master Catalog

Two Line Element Set (TLE):
1 43019U 98067NG  19017.17419119  .00004248  00000-0  59189-4 0  9992
2 43019  51.6412  22.7491 0004026 252.6755 107.3798 15.59344079151916
Source of the keplerian elements: AMSAT